N'Djamena International Airport

FTTJ · la Ville de N'Djaména, Tchad

METAR anciennes FTTJ · N'Djamena International Airport

Tu vois ci-dessous les METAR des derniers jours. Sélectionne une année pour parcourir les METAR plus anciens, à partir de l'année 2007.

20 avril 2024

Temps Code Temps Temp. Vue Base cloud Vent METAR/SPECI
07:00
I
30 °C 4,5 km - 180° 180° 3 kt METAR FTTJ 200600Z 18003KT 4500 DU NSC 30/20 Q1006 BECMG 6000 NSW
06:00
I
29 °C 4 km - 180° 180° 4 kt METAR FTTJ 200500Z 18004KT 4000 DU NSC 29/20 Q1005 NOSIG
04:00
M
30 °C 5 km - 360° 360° 0 kt METAR FTTJ 200300Z 00000KT 5000 DU NSC 30/18 Q1004 NOSIG
01:00
I
31 °C 4,5 km - 320° 320° 4 kt METAR FTTJ 200000Z 32004KT 4500 DU NSC 31/17 Q1005 TEMPO 6000 NSW
00:00
I
33 °C 4,5 km - 200° 200° 4 kt METAR FTTJ 192300Z 20004KT 4500 DU NSC 33/13 Q1006 TEMPO 6000 NSW

19 avril 2024

Temps Code Temps Temp. Vue Base cloud Vent METAR/SPECI
23:00
I
33 °C 4,5 km - 160° 160° 12 kt METAR FTTJ 192200Z 16012KT 4500 DU NSC 33/09 Q1006 TEMPO 6000 NSW
22:00
I
33 °C 4,5 km - Var Var 1 kt METAR FTTJ 192100Z VRB01KT 4500 DU NSC 33/07 Q1006 TEMPO 6000 NSW
21:00
I
35 °C 4,5 km - 310° 310° 4 kt METAR FTTJ 192000Z 31004KT 4500 DU NSC 35/05 Q1005 TEMPO 6000 NSW
20:00
I
37 °C 3,5 km - 310° 310° 4 kt METAR FTTJ 191900Z 31004KT 3500 DU NSC 37/03 Q1004 TEMPO 6000 NSW
19:00
I
37 °C 3 km - 360° 360° 0 kt METAR FTTJ 191800Z 00000KT 3000 DU NSC 37/04 Q1004 NOSIG
18:00
I
40 °C 4 km - 020° 020° 3 kt METAR FTTJ 191700Z 02003KT 350V070 4000 DU NSC 40/00 Q1003 NOSIG
17:00
M
43 °C 6 km - 030° 030° 4 kt METAR FTTJ 191600Z 03004KT 350V080 6000 NSC 43/M02 Q1003 NOSIG
16:00
M
44 °C 7 km - 050° 050° 6 kt METAR FTTJ 191500Z 05006KT 010V080 7000 NSC 44/M01 Q1003 NOSIG
14:00
M
45 °C 7 km - 090° 090° 5 kt METAR FTTJ 191300Z 09005KT 040V170 7000 NSC 45/06 Q1004 NOSIG
13:00
M
43 °C 7 km - Var Var 5 kt METAR FTTJ 191200Z VRB05KT 7000 NSC 43/09 Q1005 NOSIG
12:00
M
43 °C 7 km - Var Var 4 kt METAR FTTJ 191100Z VRB04KT 7000 NSC 43/11 Q1006 NOSIG
11:00
M
41 °C 6 km - Var Var 4 kt METAR FTTJ 191000Z VRB04KT 6000 NSC 41/13 Q1007 NOSIG
10:00
I
39 °C 4,5 km - 190° 190° 5 kt METAR FTTJ 190900Z 19005KT 150V220 4500 DU NSC 39/12 Q1008 NOSIG
09:00
I
38 °C 3,5 km - 120° 120° 3 kt METAR FTTJ 190800Z 12003KT 060V160 3500 DU NSC 38/08 Q1008 NOSIG
08:00
I
34 °C 4 km - 340° 340° 4 kt METAR FTTJ 190700Z 34004KT 310V010 4000 DU NSC 34/05 Q1008 NOSIG
07:00
I
32 °C 4 km - Var Var 3 kt METAR FTTJ 190600Z VRB03KT 4000 DU NSC 32/07 Q1007 NOSIG
06:00
I
30 °C 4 km - Var Var 3 kt METAR FTTJ 190500Z VRB03KT 4000 DU NSC 30/06 Q1006 NOSIG
05:00
M
31 °C 6 km - 350° 350° 4 kt METAR FTTJ 190400Z 35004KT 6000 NSC 31/07 Q1005 NOSIG
04:00
M
30 °C 6 km - 350° 350° 4 kt METAR FTTJ 190300Z 35004KT 6000 NSC 30/08 Q1004 NOSIG
03:00
M
31 °C 6 km - Var Var 2 kt METAR FTTJ 190200Z VRB02KT 6000 NSC 31/13 Q1004 NOSIG
01:00
M
34 °C 6 km - Var Var 2 kt METAR FTTJ 190000Z VRB02KT 6000 NSC 34/14 Q1005 NOSIG

18 avril 2024

Temps Code Temps Temp. Vue Base cloud Vent METAR/SPECI
22:00
M
37 °C 6 km - 150° 150° 8 kt METAR FTTJ 182100Z 15008KT 6000 NSC 37/15 Q1006 NOSIG
21:00
M
38 °C 6 km - Var Var 2 kt METAR FTTJ 182000Z VRB02KT 6000 NSC 38/15 Q1005 NOSIG
20:00
I
39 °C 4,5 km - 110° 110° 6 kt METAR FTTJ 181900Z 11006KT 4500 DU NSC 39/14 Q1004 BECMG 6000 NSW
19:00
I
40 °C 4,5 km - 030° 030° 4 kt METAR FTTJ 181800Z 03004KT 360V140 4500 DU NSC 40/11 Q1004 BECMG 6000 NSW
18:00
M
43 °C 6 km - Var Var 2 kt METAR FTTJ 181700Z VRB02KT 6000 FEW040 FEW050TCU 43/12 Q1003 NOSIG
17:00
M
44 °C 6 km - 180° 180° 3 kt METAR FTTJ 181600Z 18003KT 140V220 6000 FEW040 FEW050TCU 44/10 Q1002 NOSIG
16:00
M
44 °C 6 km - 160° 160° 6 kt METAR FTTJ 181500Z 16006KT 130V200 6000 FEW040 44/10 Q1003 NOSIG
15:00
M
44 °C 6 km - 180° 180° 7 kt METAR FTTJ 181400Z 18007KT 6000 NSC 44/10 Q1003 NOSIG
14:00
M
45 °C 6 km - 110° 110° 6 kt METAR FTTJ 181300Z 11006KT 010V170 6000 NSC 45/11 Q1003 NOSIG
13:00
M
44 °C 6 km - 150° 150° 9 kt METAR FTTJ 181200Z 15009KT 110V190 6000 NSC 44/10 Q1004 NOSIG
12:00
M
43 °C 6 km - 140° 140° 7 kt METAR FTTJ 181100Z 14007KT 060V210 6000 NSC 43/10 Q1005 NOSIG
11:00
M
41 °C 6 km - 120° 120° 9 kt METAR FTTJ 181000Z 12009KT 090V150 6000 NSC 41/09 Q1006 NOSIG
10:00
M
41 °C 7 km - 070° 070° 10 kt METAR FTTJ 180900Z 07010KT 050V120 7000 NSC 41/M02 Q1006 NOSIG
09:00
M
40 °C 6 km - 050° 050° 14 kt METAR FTTJ 180800Z 05014KT 6000 NSC 40/M02 Q1007 NOSIG
08:00
M
37 °C 7 km - 040° 040° 12 kt METAR FTTJ 180700Z 04012KT 7000 NSC 37/00 Q1007 TEMPO 4000DU
07:00
M
32 °C 6 km - 040° 040° 6 kt METAR FTTJ 180600Z 04006KT 6000 NSC 32/04 Q1006 TEMPO 4000 DU
Signaler les modifications